VOE51YV LFPO-LFBT

Flight info

Callsign VOE51YV
Flight time 0h 58m
Altitude 33000
Route ERIXU DCT ETAMO DCT GUERE DCT EVPOK DCT AGN
Aircraft A319/M-SDFGIJ1RWY/LB1

Departure

Time 2026-05-06 17:04
Airport Paris-Orly Airport (LFPO)

Arrival

Time 2026-05-06 18:02
Airport Tarbes-Lourdes-Pyrénées Airport (LFBT)
Time Latitude Longitude Altitude Speed Heading
2026-05-06 16:42 48.72824 2.35690 294 ft 0 kts 40°
2026-05-06 16:57 48.72808 2.35670 296 ft 4 kts 39°
2026-05-06 16:57 48.72787 2.35645 296 ft 4 kts 36°
2026-05-06 16:58 48.72764 2.35622 296 ft 4 kts 28°
2026-05-06 16:58 48.72740 2.35609 295 ft 3 kts 351°
2026-05-06 16:58 48.72735 2.35609 295 ft 0 kts 344°
2026-05-06 16:59 48.72741 2.35606 295 ft 3 kts 336°
2026-05-06 17:00 48.72751 2.35568 292 ft 6 kts 278°
2026-05-06 17:00 48.72759 2.35486 290 ft 10 kts 302°
2026-05-06 17:00 48.72834 2.35440 291 ft 14 kts 347°
2026-05-06 17:00 48.72912 2.35363 293 ft 14 kts 330°
2026-05-06 17:01 48.73004 2.35386 292 ft 14 kts 24°
2026-05-06 17:01 48.73074 2.35490 293 ft 15 kts 58°
2026-05-06 17:01 48.73143 2.35601 291 ft 15 kts 24°
2026-05-06 17:01 48.73219 2.35707 292 ft 16 kts 62°
2026-05-06 17:02 48.73271 2.35856 293 ft 16 kts 62°
2026-05-06 17:02 48.73324 2.36009 291 ft 17 kts 61°
2026-05-06 17:02 48.73419 2.36098 290 ft 17 kts
2026-05-06 17:02 48.73512 2.36021 291 ft 16 kts 280°
2026-05-06 17:03 48.73468 2.35841 289 ft 26 kts 243°
2026-05-06 17:03 48.73257 2.35225 293 ft 103 kts 241°
2026-05-06 17:03 48.72817 2.33973 297 ft 163 kts 243°
2026-05-06 17:03 48.72281 2.32437 882 ft 164 kts 245°
2026-05-06 17:04 48.71731 2.30913 1625 ft 166 kts 243°
2026-05-06 17:04 48.71097 2.29400 2284 ft 178 kts 239°
2026-05-06 17:04 48.70371 2.27737 2763 ft 201 kts 239°
2026-05-06 17:04 48.69552 2.25866 3196 ft 226 kts 238°
2026-05-06 17:05 48.68635 2.23768 3751 ft 251 kts 238°
2026-05-06 17:05 48.67632 2.21462 4405 ft 270 kts 238°
2026-05-06 17:05 48.66588 2.19055 5348 ft 276 kts 238°
2026-05-06 17:05 48.65389 2.16766 6345 ft 282 kts 224°
2026-05-06 17:06 48.63829 2.14940 7322 ft 286 kts 213°
2026-05-06 17:06 48.62121 2.13373 8307 ft 289 kts 210°
2026-05-06 17:06 48.60352 2.11879 9306 ft 294 kts 209°
2026-05-06 17:06 48.58545 2.10352 9779 ft 299 kts 210°
2026-05-06 17:07 48.56731 2.08787 9915 ft 306 kts 208°
2026-05-06 17:07 48.54618 2.07570 9944 ft 345 kts 192°
2026-05-06 17:07 48.52171 2.07289 9932 ft 360 kts 175°
2026-05-06 17:07 48.49739 2.08146 9928 ft 360 kts 158°
2026-05-06 17:08 48.47416 2.09583 10053 ft 365 kts 157°
2026-05-06 17:08 48.45071 2.11047 10889 ft 365 kts 158°
2026-05-06 17:08 48.42722 2.12512 11742 ft 366 kts 158°
2026-05-06 17:08 48.40357 2.13983 12512 ft 369 kts 159°
2026-05-06 17:09 48.37969 2.15462 13273 ft 373 kts 159°
2026-05-06 17:09 48.35557 2.16951 13977 ft 377 kts 159°
2026-05-06 17:09 48.33152 2.18433 14628 ft 380 kts 159°
2026-05-06 17:09 48.30671 2.19963 15337 ft 382 kts 160°
2026-05-06 17:10 48.28134 2.21154 16059 ft 383 kts 169°
2026-05-06 17:10 48.25537 2.21820 16789 ft 385 kts 172°
2026-05-06 17:10 48.22886 2.22462 17505 ft 387 kts 172°
2026-05-06 17:10 48.20218 2.23106 18180 ft 390 kts 172°
2026-05-06 17:11 48.17531 2.23750 18754 ft 393 kts 172°
2026-05-06 17:11 48.14821 2.24396 19289 ft 397 kts 172°
2026-05-06 17:11 48.12080 2.25052 19831 ft 400 kts 172°
2026-05-06 17:11 48.09318 2.25716 20366 ft 404 kts 172°
2026-05-06 17:12 48.06508 2.26090 20874 ft 407 kts 178°
2026-05-06 17:12 48.03668 2.26283 21386 ft 410 kts 178°
2026-05-06 17:12 48.00808 2.26469 21884 ft 413 kts 177°
2026-05-06 17:12 47.97928 2.26651 22379 ft 416 kts 177°
2026-05-06 17:13 47.95023 2.26831 22841 ft 419 kts 177°
2026-05-06 17:13 47.92094 2.27011 23290 ft 423 kts 176°
2026-05-06 17:13 47.89145 2.27197 23708 ft 426 kts 176°
2026-05-06 17:13 47.86179 2.27387 24111 ft 428 kts 176°
2026-05-06 17:14 47.83195 2.27580 24507 ft 430 kts 176°
2026-05-06 17:14 47.80194 2.27774 24899 ft 433 kts 176°
2026-05-06 17:14 47.77178 2.27965 25278 ft 435 kts 176°
2026-05-06 17:14 47.74142 2.28154 25652 ft 438 kts 176°
2026-05-06 17:15 47.71092 2.28346 26022 ft 440 kts 176°
2026-05-06 17:15 47.68027 2.28539 26392 ft 442 kts 176°
2026-05-06 17:15 47.64948 2.28733 26738 ft 445 kts 176°
2026-05-06 17:15 47.61849 2.28927 27084 ft 447 kts 176°
2026-05-06 17:16 47.58729 2.29125 27420 ft 449 kts 176°
2026-05-06 17:16 47.55603 2.29323 27779 ft 452 kts 176°
2026-05-06 17:16 47.52448 2.29520 28113 ft 454 kts 176°
2026-05-06 17:16 47.49286 2.29715 28439 ft 457 kts 176°
2026-05-06 17:17 47.46099 2.29911 28757 ft 459 kts 176°
2026-05-06 17:17 47.42908 2.30106 29179 ft 459 kts 176°
2026-05-06 17:17 47.39723 2.30301 29648 ft 458 kts 176°
2026-05-06 17:17 47.36544 2.30497 30105 ft 456 kts 176°
2026-05-06 17:18 47.33381 2.30695 30533 ft 455 kts 176°
2026-05-06 17:18 47.30225 2.30896 30981 ft 452 kts 176°
2026-05-06 17:18 47.27091 2.31093 31414 ft 450 kts 176°
2026-05-06 17:18 47.23965 2.31284 31854 ft 448 kts 177°
2026-05-06 17:19 47.20855 2.31475 32269 ft 447 kts 177°
2026-05-06 17:19 47.17748 2.31668 32677 ft 446 kts 177°
2026-05-06 17:19 47.14651 2.31861 32890 ft 446 kts 177°
2026-05-06 17:20 47.08504 2.32242 32926 ft 445 kts 177°
2026-05-06 17:20 47.02318 2.32623 32925 ft 445 kts 178°
2026-05-06 17:21 46.96138 2.33007 32926 ft 445 kts 178°
2026-05-06 17:21 46.89953 2.33395 32930 ft 445 kts 178°
2026-05-06 17:22 46.83768 2.33387 32931 ft 445 kts 187°
2026-05-06 17:22 46.77747 2.31318 32936 ft 445 kts 195°
2026-05-06 17:23 46.71766 2.29004 32934 ft 445 kts 195°
2026-05-06 17:23 46.65779 2.26711 32940 ft 445 kts 195°
2026-05-06 17:24 46.59792 2.24426 32938 ft 445 kts 195°
2026-05-06 17:24 46.53807 2.22149 32942 ft 444 kts 195°
2026-05-06 17:25 46.47833 2.19871 32943 ft 444 kts 195°
2026-05-06 17:25 46.41858 2.17595 32938 ft 444 kts 195°
2026-05-06 17:26 46.35883 2.15327 32932 ft 444 kts 195°
2026-05-06 17:26 46.29912 2.13066 32933 ft 444 kts 195°
2026-05-06 17:27 46.23937 2.10812 32927 ft 444 kts 195°
2026-05-06 17:27 46.18137 2.07829 32920 ft 443 kts 208°
2026-05-06 17:28 46.13015 2.02892 32919 ft 443 kts 215°
2026-05-06 17:28 46.07963 1.97785 32914 ft 444 kts 215°
2026-05-06 17:29 46.02896 1.92704 32918 ft 444 kts 215°
2026-05-06 17:29 45.97826 1.87624 32910 ft 444 kts 215°
2026-05-06 17:30 45.92758 1.82549 32908 ft 444 kts 215°
2026-05-06 17:30 45.87680 1.77473 32910 ft 445 kts 215°
2026-05-06 17:31 45.82601 1.72404 32907 ft 445 kts 215°
2026-05-06 17:31 45.77552 1.67369 32908 ft 445 kts 215°
2026-05-06 17:32 45.72453 1.62321 32908 ft 446 kts 215°
2026-05-06 17:32 45.67351 1.57272 32907 ft 446 kts 215°
2026-05-06 17:33 45.62251 1.52218 32905 ft 446 kts 215°
2026-05-06 17:33 45.57143 1.47180 32901 ft 446 kts 215°
2026-05-06 17:34 45.52029 1.42166 32896 ft 446 kts 215°
2026-05-06 17:34 45.46667 1.37745 32893 ft 447 kts 202°
2026-05-06 17:35 45.40658 1.35431 32895 ft 449 kts 194°
2026-05-06 17:35 45.34569 1.33456 32895 ft 449 kts 194°
2026-05-06 17:36 45.25433 1.30473 32900 ft 449 kts 194°
2026-05-06 17:36 45.19332 1.28498 32903 ft 449 kts 194°
2026-05-06 17:37 45.13232 1.26533 32906 ft 449 kts 194°
2026-05-06 17:37 45.07139 1.24569 32907 ft 449 kts 194°
2026-05-06 17:38 45.01043 1.22611 32910 ft 449 kts 194°
2026-05-06 17:38 44.94940 1.20666 32892 ft 451 kts 195°
2026-05-06 17:39 44.88801 1.18693 32685 ft 451 kts 195°
2026-05-06 17:39 44.85751 1.17715 32418 ft 450 kts 195°
2026-05-06 17:39 44.82697 1.16743 32155 ft 450 kts 195°
2026-05-06 17:40 44.79634 1.15774 31894 ft 451 kts 195°
2026-05-06 17:40 44.76566 1.14800 31637 ft 453 kts 195°
2026-05-06 17:40 44.73491 1.13821 31379 ft 454 kts 195°
2026-05-06 17:40 44.70411 1.12840 31128 ft 455 kts 195°
2026-05-06 17:41 44.67320 1.11853 30874 ft 456 kts 195°
2026-05-06 17:41 44.64225 1.10865 30620 ft 457 kts 194°
2026-05-06 17:41 44.62169 1.10209 30462 ft 457 kts 194°
2026-05-06 17:41 44.58012 1.08892 30146 ft 459 kts 194°
2026-05-06 17:42 44.55945 1.08243 29966 ft 459 kts 194°
2026-05-06 17:42 44.52828 1.07265 29681 ft 460 kts 194°
2026-05-06 17:42 44.49704 1.06279 29389 ft 460 kts 194°
2026-05-06 17:42 44.46591 1.05296 29097 ft 459 kts 194°
2026-05-06 17:43 44.43472 1.04315 28808 ft 459 kts 194°
2026-05-06 17:43 44.40357 1.03336 28547 ft 459 kts 194°
2026-05-06 17:43 44.37261 1.02365 27875 ft 454 kts 194°
2026-05-06 17:43 44.34201 1.01408 27188 ft 448 kts 194°
2026-05-06 17:44 44.31169 1.00461 26508 ft 444 kts 194°
2026-05-06 17:44 44.28172 0.99525 25839 ft 440 kts 194°
2026-05-06 17:44 44.25200 0.98596 25189 ft 436 kts 194°
2026-05-06 17:44 44.22257 0.97676 24541 ft 432 kts 194°
2026-05-06 17:45 44.19334 0.96761 23897 ft 429 kts 195°
2026-05-06 17:45 44.16431 0.95856 23212 ft 425 kts 194°
2026-05-06 17:45 44.13560 0.94966 22578 ft 420 kts 195°
2026-05-06 17:45 44.10723 0.94088 22012 ft 415 kts 195°
2026-05-06 17:46 44.07922 0.93219 21469 ft 410 kts 195°
2026-05-06 17:46 44.05151 0.92358 20939 ft 406 kts 195°
2026-05-06 17:46 44.02405 0.91504 20431 ft 402 kts 195°
2026-05-06 17:46 43.99687 0.90660 19931 ft 399 kts 195°
2026-05-06 17:47 43.96990 0.89824 19453 ft 396 kts 195°
2026-05-06 17:47 43.94312 0.88997 18978 ft 393 kts 195°
2026-05-06 17:47 43.91650 0.88174 18487 ft 390 kts 196°
2026-05-06 17:47 43.89095 0.87004 17974 ft 384 kts 206°
2026-05-06 17:48 43.86763 0.85250 17324 ft 381 kts 216°
2026-05-06 17:48 43.84623 0.83107 16680 ft 380 kts 219°
2026-05-06 17:48 43.82487 0.80958 16040 ft 379 kts 218°
2026-05-06 17:48 43.80347 0.78825 15406 ft 379 kts 218°
2026-05-06 17:49 43.78205 0.76697 14760 ft 379 kts 218°
2026-05-06 17:49 43.76066 0.74573 14125 ft 378 kts 218°
2026-05-06 17:49 43.73931 0.72451 13455 ft 378 kts 218°
2026-05-06 17:49 43.71810 0.70345 12833 ft 373 kts 218°
2026-05-06 17:50 43.69710 0.68263 12230 ft 369 kts 218°
2026-05-06 17:50 43.67631 0.66206 11544 ft 366 kts 218°
2026-05-06 17:50 43.65572 0.64169 10941 ft 361 kts 218°
2026-05-06 17:50 43.63552 0.62171 10588 ft 350 kts 218°
2026-05-06 17:51 43.61647 0.60291 10465 ft 333 kts 218°
2026-05-06 17:51 43.59802 0.58472 10339 ft 317 kts 219°
2026-05-06 17:51 43.58073 0.56769 10202 ft 294 kts 219°
2026-05-06 17:51 43.56436 0.55154 9896 ft 286 kts 219°
2026-05-06 17:52 43.54839 0.53574 9767 ft 281 kts 219°
2026-05-06 17:52 43.53274 0.52026 9623 ft 272 kts 219°
2026-05-06 17:52 43.51765 0.50538 9489 ft 261 kts 219°
2026-05-06 17:52 43.50313 0.49111 9357 ft 252 kts 219°
2026-05-06 17:53 43.48912 0.47734 9167 ft 245 kts 219°
2026-05-06 17:53 43.47530 0.46375 8862 ft 243 kts 219°
2026-05-06 17:53 43.46157 0.45026 8522 ft 242 kts 219°
2026-05-06 17:53 43.44794 0.43684 8177 ft 240 kts 219°
2026-05-06 17:54 43.43437 0.42349 7852 ft 239 kts 220°
2026-05-06 17:54 43.42087 0.41020 7513 ft 238 kts 219°
2026-05-06 17:54 43.40751 0.39683 7157 ft 236 kts 223°
2026-05-06 17:54 43.39794 0.37931 6847 ft 227 kts 250°
2026-05-06 17:55 43.39232 0.35919 6526 ft 226 kts 252°
2026-05-06 17:55 43.38668 0.33899 6154 ft 226 kts 252°
2026-05-06 17:55 43.38103 0.31886 5837 ft 225 kts 252°
2026-05-06 17:55 43.37544 0.29898 5534 ft 223 kts 252°
2026-05-06 17:56 43.36988 0.27919 5226 ft 221 kts 252°
2026-05-06 17:56 43.36435 0.25949 4901 ft 220 kts 252°
2026-05-06 17:56 43.35884 0.23992 4570 ft 219 kts 252°
2026-05-06 17:56 43.35334 0.22047 4262 ft 217 kts 252°
2026-05-06 17:57 43.34788 0.20122 3954 ft 215 kts 251°
2026-05-06 17:57 43.34248 0.18213 3614 ft 214 kts 251°
2026-05-06 17:57 43.33714 0.16324 3433 ft 208 kts 252°
2026-05-06 17:57 43.33222 0.14510 3314 ft 197 kts 257°
2026-05-06 17:58 43.32949 0.12697 3227 ft 192 kts 261°
2026-05-06 17:58 43.32692 0.10920 3143 ft 188 kts 261°
2026-05-06 17:58 43.32437 0.09167 3075 ft 186 kts 260°
2026-05-06 17:58 43.32131 0.07444 2997 ft 188 kts 249°
2026-05-06 17:59 43.31239 0.06167 3000 ft 188 kts 211°
2026-05-06 17:59 43.30038 0.05547 3004 ft 181 kts 205°
2026-05-06 17:59 43.28882 0.04961 3002 ft 174 kts 206°
2026-05-06 17:59 43.27752 0.04387 2967 ft 170 kts 205°
2026-05-06 18:00 43.26670 0.03838 2809 ft 163 kts 205°
2026-05-06 18:00 43.25618 0.03302 2591 ft 161 kts 206°
2026-05-06 18:00 43.24580 0.02775 2394 ft 155 kts 207°
2026-05-06 18:00 43.23585 0.02271 2188 ft 151 kts 206°
2026-05-06 18:01 43.22596 0.01767 1961 ft 154 kts 206°
2026-05-06 18:01 43.21598 0.01260 1732 ft 152 kts 204°
2026-05-06 18:01 43.20600 0.00754 1531 ft 151 kts 206°
2026-05-06 18:01 43.19637 0.00273 1329 ft 143 kts 206°
2026-05-06 18:02 43.18767 -0.00173 1199 ft 121 kts 206°
2026-05-06 18:02 43.18116 -0.00528 1215 ft 77 kts 199°
2026-05-06 18:02 43.17727 -0.00709 1222 ft 52 kts 199°
2026-05-06 18:02 43.17408 -0.00866 1234 ft 47 kts 201°
2026-05-06 18:03 43.17171 -0.00983 1253 ft 22 kts 193°
2026-05-06 18:03 43.17074 -0.00872 1256 ft 20 kts 110°
2026-05-06 18:03 43.17127 -0.00750 1251 ft 17 kts 24°
2026-05-06 18:03 43.17251 -0.00680 1238 ft 21 kts 21°
2026-05-06 18:04 43.17400 -0.00605 1231 ft 25 kts 20°
2026-05-06 18:04 43.17570 -0.00520 1225 ft 27 kts 23°
2026-05-06 18:04 43.17747 -0.00398 1229 ft 29 kts 29°
2026-05-06 18:04 43.17932 -0.00256 1215 ft 31 kts 30°
2026-05-06 18:05 43.18128 -0.00105 1209 ft 31 kts 28°
2026-05-06 18:05 43.18293 0.00018 1203 ft 24 kts 29°
2026-05-06 18:05 43.18407 0.00108 1199 ft 15 kts 31°
2026-05-06 18:05 43.18417 0.00234 1198 ft 10 kts 103°
2026-05-06 18:06 43.18437 0.00313 1196 ft 11 kts 32°
2026-05-06 18:06 43.18475 0.00347 1196 ft 0 kts 33°